When you browse on this site, cookies collect data to enhance your experience and personalize the content and advertising you see.
Visit our Privacy Policy to learn more. By continuing to use the site, you agree to this use of cookies and data.
  • In Austria
  • List of Countries
  • For 7 days
  • Water Temperature
  • Weather Map
  • News
  • Weather Widgets
  • user-avatar
    Login

    Hourly Weather Zatyshne

    Today, 23 October, Wednesday

    Time Temperature Precipitation Wind Pressure Humidity
    00:00 +12°C° 0 mm 0 mps 755 mmHg 61%
    01:00 +12°C° 0 mm 0 mps 755 mmHg 61%
    02:00 +13°C° 0 mm 1 mps 755 mmHg 60%
    03:00 +12°C° 0 mm 1 mps 755 mmHg 62%
    04:00 +12°C° 0 mm 1 mps 755 mmHg 63%
    05:00 +11°C° 0 mm 0 mps 755 mmHg 64%
    06:00 +12°C° 0 mm 0 mps 755 mmHg 61%
    07:00 +12°C° 0 mm 0 mps 755 mmHg 58%
    08:00 +13°C° 0 mm 0 mps 755 mmHg 56%
    09:00 +16°C° 0 mm 1 mps 755 mmHg 51%
    10:00 +18°C° 0 mm 1 mps 755 mmHg 46%
    11:00 +19°C° 0 mm 2 mps 755 mmHg 41%
    12:00 +20°C° 0 mm 2 mps 755 mmHg 40%
    13:00 +20°C° 0 mm 2 mps 754 mmHg 39%
    14:00 +21°C° 0 mm 2 mps 754 mmHg 38%
    15:00 +20°C° 0 mm 2 mps 754 mmHg 41%
    16:00 +19°C° 0 mm 2 mps 753 mmHg 45%
    17:00 +17°C° 0 mm 2 mps 753 mmHg 49%
    18:00 +17°C° 0 mm 2 mps 753 mmHg 50%
    19:00 +16°C° 0 mm 2 mps 753 mmHg 52%
    20:00 +16°C° 0 mm 2 mps 753 mmHg 54%
    21:00 +15°C° 0 mm 2 mps 753 mmHg 54%
    22:00 +15°C° 0 mm 2 mps 753 mmHg 54%
    23:00 +15°C° 0 mm 2 mps 753 mmHg 54%

    Tomorrow, 24 October, Thursday

    Time Temperature Precipitation Wind Pressure Humidity
    00:00 +14°C° 0 mm 2 mps 753 mmHg 53%
    01:00 +14°C° 0 mm 2 mps 753 mmHg 53%
    02:00 +14°C° 0 mm 2 mps 753 mmHg 53%
    03:00 +14°C° 0 mm 2 mps 753 mmHg 52%
    04:00 +13°C° 0 mm 2 mps 753 mmHg 51%
    05:00 +13°C° 0 mm 2 mps 752 mmHg 51%
    06:00 +14°C° 0 mm 2 mps 753 mmHg 49%
    07:00 +14°C° 0 mm 2 mps 753 mmHg 47%
    08:00 +15°C° 0 mm 2 mps 753 mmHg 45%
    09:00 +16°C° 0 mm 2 mps 753 mmHg 41%
    10:00 +18°C° 0 mm 2 mps 753 mmHg 37%
    11:00 +20°C° 0 mm 2 mps 753 mmHg 34%
    12:00 +21°C° 0 mm 2 mps 752 mmHg 34%
    13:00 +21°C° 0 mm 2 mps 752 mmHg 35%
    14:00 +23°C° 0 mm 2 mps 752 mmHg 36%
    15:00 +21°C° 0 mm 2 mps 752 mmHg 42%
    16:00 +19°C° 0 mm 2 mps 752 mmHg 47%
    17:00 +19°C° 0 mm 1 mps 751 mmHg 53%
    18:00 +18°C° 0 mm 1 mps 752 mmHg 57%
    19:00 +18°C° 0 mm 1 mps 752 mmHg 61%
    20:00 +16°C° 0 mm 1 mps 752 mmHg 65%
    21:00 +16°C° 0 mm 1 mps 752 mmHg 67%
    22:00 +15°C° 0 mm 1 mps 752 mmHg 70%
    23:00 +15°C° 0 mm 1 mps 752 mmHg 73%

    Day after tomorrow, 25 October, Friday

    Time Temperature Precipitation Wind Pressure Humidity
    00:00 +14°C° 0 mm 1 mps 752 mmHg 75%
    01:00 +14°C° 0 mm 1 mps 752 mmHg 78%
    02:00 +14°C° 0 mm 1 mps 752 mmHg 80%
    03:00 +13°C° 0 mm 2 mps 752 mmHg 82%
    04:00 +13°C° 0 mm 2 mps 752 mmHg 83%
    05:00 +13°C° 0 mm 2 mps 752 mmHg 85%
    06:00 +13°C° 0 mm 2 mps 752 mmHg 83%
    07:00 +13°C° 0 mm 2 mps 752 mmHg 81%
    08:00 +14°C° 0 mm 2 mps 752 mmHg 79%
    09:00 +15°C° 0 mm 2 mps 752 mmHg 71%
    10:00 +17°C° 0 mm 2 mps 752 mmHg 63%
    11:00 +18°C° 0 mm 2 mps 752 mmHg 55%
    12:00 +19°C° 0 mm 2 mps 752 mmHg 51%
    13:00 +19°C° 0 mm 2 mps 752 mmHg 47%
    14:00 +20°C° 0 mm 2 mps 752 mmHg 43%
    15:00 +19°C° 0 mm 2 mps 752 mmHg 47%
    16:00 +18°C° 0 mm 2 mps 752 mmHg 51%
    17:00 +17°C° 0 mm 2 mps 752 mmHg 55%
    18:00 +16°C° 0 mm 2 mps 752 mmHg 58%
    19:00 +15°C° 0 mm 2 mps 752 mmHg 60%
    20:00 +14°C° 0 mm 2 mps 752 mmHg 63%
    21:00 +14°C° 0 mm 2 mps 752 mmHg 65%
    22:00 +14°C° 0 mm 1 mps 752 mmHg 66%
    23:00 +13°C° 0 mm 1 mps 753 mmHg 68%

    26 October, Saturday

    Time Temperature Precipitation Wind Pressure Humidity
    00:00 +13°C° 0 mm 1 mps 753 mmHg 69%
    01:00 +12°C° 0 mm 1 mps 753 mmHg 71%
    02:00 +12°C° 0 mm 1 mps 753 mmHg 72%
    03:00 +12°C° 0 mm 1 mps 753 mmHg 74%
    04:00 +11°C° 0 mm 1 mps 753 mmHg 75%
    05:00 +11°C° 0 mm 1 mps 753 mmHg 77%
    06:00 +12°C° 0 mm 1 mps 753 mmHg 74%
    07:00 +13°C° 0 mm 1 mps 753 mmHg 71%
    08:00 +13°C° 0 mm 1 mps 753 mmHg 68%
    09:00 +15°C° 0 mm 1 mps 753 mmHg 61%
    10:00 +18°C° 0 mm 1 mps 754 mmHg 54%
    11:00 +19°C° 0 mm 1 mps 754 mmHg 47%
    12:00 +20°C° 0 mm 1 mps 753 mmHg 44%
    13:00 +20°C° 0 mm 1 mps 753 mmHg 41%
    14:00 +21°C° 0 mm 1 mps 753 mmHg 38%
    15:00 +20°C° 0 mm 1 mps 753 mmHg 41%
    16:00 +19°C° 0 mm 1 mps 753 mmHg 45%
    17:00 +16°C° 0 mm 1 mps 752 mmHg 48%
    18:00 +16°C° 0 mm 1 mps 752 mmHg 51%
    19:00 +15°C° 0 mm 1 mps 753 mmHg 53%
    20:00 +15°C° 0 mm 1 mps 753 mmHg 56%
    21:00 +14°C° 0 mm 1 mps 753 mmHg 58%
    22:00 +14°C° 0 mm 1 mps 753 mmHg 60%
    23:00 +14°C° 0 mm 1 mps 753 mmHg 62%

    27 October, Sunday

    Time Temperature Precipitation Wind Pressure Humidity
    00:00 +13°C° 0 mm 2 mps 753 mmHg 63%
    01:00 +13°C° 0 mm 2 mps 752 mmHg 64%
    02:00 +13°C° 0 mm 2 mps 752 mmHg 66%
    03:00 +12°C° 0 mm 2 mps 752 mmHg 67%
    04:00 +12°C° 0 mm 2 mps 752 mmHg 68%
    05:00 +12°C° 0 mm 2 mps 752 mmHg 69%
    06:00 +12°C° 0 mm 2 mps 752 mmHg 66%
    07:00 +13°C° 0 mm 2 mps 752 mmHg 64%
    08:00 +14°C° 0 mm 2 mps 752 mmHg 61%
    09:00 +16°C° 0 mm 3 mps 752 mmHg 55%
    10:00 +17°C° 0 mm 3 mps 752 mmHg 49%
    11:00 +19°C° 0 mm 4 mps 752 mmHg 43%
    12:00 +20°C° 0 mm 4 mps 751 mmHg 41%
    13:00 +20°C° 0 mm 4 mps 751 mmHg 39%
    14:00 +21°C° 0 mm 4 mps 750 mmHg 38%
    15:00 +19°C° 0 mm 4 mps 750 mmHg 42%
    16:00 +18°C° 0 mm 3 mps 750 mmHg 46%
    17:00 +16°C° 0 mm 3 mps 749 mmHg 50%
    18:00 +16°C° 0 mm 3 mps 749 mmHg 52%
    19:00 +14°C° 0 mm 3 mps 749 mmHg 54%
    20:00 +14°C° 0 mm 3 mps 749 mmHg 56%
    21:00 +13°C° 0 mm 3 mps 749 mmHg 59%
    22:00 +13°C° 0 mm 3 mps 749 mmHg 61%
    23:00 +12°C° 0 mm 3 mps 749 mmHg 64%

    28 October, Monday

    Time Temperature Precipitation Wind Pressure Humidity
    00:00 +12°C° 0 mm 3 mps 749 mmHg 66%
    01:00 +11°C° 0 mm 3 mps 748 mmHg 68%
    02:00 +11°C° 0 mm 3 mps 748 mmHg 70%
    03:00 +10°C° 0 mm 3 mps 748 mmHg 73%
    04:00 +10°C° 0 mm 3 mps 748 mmHg 75%
    05:00 +10°C° 0 mm 3 mps 748 mmHg 78%
    06:00 +10°C° 0 mm 3 mps 748 mmHg 76%
    07:00 +11°C° 0 mm 3 mps 748 mmHg 75%
    08:00 +11°C° 0 mm 3 mps 748 mmHg 74%
    09:00 +13°C° 0 mm 3 mps 748 mmHg 67%
    10:00 +16°C° 0 mm 3 mps 748 mmHg 60%
    11:00 +18°C° 0 mm 3 mps 748 mmHg 53%
    12:00 +18°C° 0 mm 3 mps 747 mmHg 50%
    13:00 +19°C° 0 mm 3 mps 747 mmHg 48%
    14:00 +20°C° 0 mm 3 mps 747 mmHg 45%
    15:00 +18°C° 0 mm 2 mps 747 mmHg 49%
    16:00 +17°C° 0 mm 2 mps 746 mmHg 53%
    17:00 +16°C° 0 mm 1 mps 746 mmHg 57%
    18:00 +16°C° 0 mm 1 mps 746 mmHg 59%
    19:00 +15°C° 0 mm 1 mps 746 mmHg 61%
    20:00 +14°C° 0 mm 0 mps 746 mmHg 63%
    21:00 +14°C° 0 mm 1 mps 746 mmHg 65%
    22:00 +14°C° 0 mm 1 mps 746 mmHg 67%
    23:00 +14°C° 0 mm 1 mps 746 mmHg 69%

    29 October, Tuesday

    Time Temperature Precipitation Wind Pressure Humidity
    00:00 +13°C° 0 mm 2 mps 746 mmHg 73%
    01:00 +12°C° 0 mm 2 mps 746 mmHg 78%
    02:00 +12°C° 0 mm 2 mps 746 mmHg 83%
    03:00 +10°C° 0 mm 3 mps 746 mmHg 84%
    04:00 +10°C° 0 mm 3 mps 746 mmHg 86%
    05:00 +8°C° 0 mm 4 mps 745 mmHg 88%
    06:00 +8°C° 0 mm 4 mps 746 mmHg 85%
    07:00 +8°C° 0 mm 4 mps 746 mmHg 81%
    08:00 +8°C° 0 mm 4 mps 746 mmHg 78%
    09:00 +8°C° 0.1 mm 4 mps 746 mmHg 78%
    10:00 +9°C° 0.1 mm 3 mps 747 mmHg 77%
    11:00 +9°C° 0.1 mm 3 mps 747 mmHg 76%
    12:00 +10°C° 0 mm 3 mps 747 mmHg 68%
    13:00 +11°C° 0 mm 3 mps 747 mmHg 59%
    14:00 +11°C° 0 mm 3 mps 747 mmHg 51%
    15:00 +11°C° 0 mm 3 mps 747 mmHg 51%
    16:00 +10°C° 0 mm 3 mps 747 mmHg 52%
    17:00 +10°C° 0 mm 2 mps 747 mmHg 52%
    18:00 +9°C° 0 mm 2 mps 747 mmHg 53%
    19:00 +8°C° 0 mm 2 mps 748 mmHg 53%
    20:00 +8°C° 0 mm 2 mps 748 mmHg 54%
    21:00 +7°C° 0 mm 2 mps 748 mmHg 54%
    22:00 +7°C° 0 mm 2 mps 748 mmHg 54%
    23:00 +7°C° 0 mm 3 mps 749 mmHg 55%
    Show more